Location: Asheville, NC
(35.6000°N, 82.5500°W)
Time: 04:56:04

XW-2F - Pass Details

Date: 05 January 2018
Orbit: 507 x 527 km, 97.5° (Epoch: 22 March)

Event Time Altitude Azimuth Distance (km) Brightness Sun altitude
Rises 17:51:44 0° 166° (SSE) 2,640 ? -4.6°
Reaches altitude 10° 17:53:49 10° 165° (SSE) 1,758 ? -4.9°
Maximum altitude 17:57:37 85° 76° (ENE) 533 ? -5.7°
Drops below altitude 10° 18:01:27 10° 350° (N) 1,775 ? -6.4°
Sets 18:03:34 0° 350° (N) 2,668 ? -6.8°
